Dallas/Ft Worth, TX

7:33 AM CDT on June 22, 2017 (GMT -0500)
Dallas-Fort Worth International

Weather History for KDFW - January, 2015

Change the Weather History Date:

Saturday, January 31, 2015

  Actual Average Record
Temperature  
Mean Temperature 51 °F 47 °F  
Max Temperature 54 °F 58 °F 93 °F (1911)
Min Temperature 47 °F 36 °F -2 °F (1949)
Degree Days  
Heating Degree Days 14 18  
Month to date heating degree days 625 594  
Since 1 July heating degree days 1499 1505  
Cooling Degree Days 0 0  
Month to date cooling degree days 0 2  
Year to date cooling degree days 0 2  
Moisture  
Dew Point 41 °F    
Average Humidity 71    
Maximum Humidity 100    
Minimum Humidity 42    
Precipitation  
Precipitation 0.54 in 0.08 in 3.07 in (2002)
Month to date precipitation 3.62 2.13  
Year to date precipitation 3.62 2.13  
Snow  
Snow 0.00 in 0.00 in 1.20 in (1985)
Month to date snowfall T 0.2  
Since 1 July snowfall T 0.5  
Snow Depth 0.00 in    
Sea Level Pressure  
Sea Level Pressure 30.05 in    
Wind  
Wind Speed 11 mph (SE)    
Max Wind Speed 18 mph    
Max Gust Speed 22 mph    
Visibility 6 miles    
Events Rain    
T = Trace of Precipitation, MM = Missing Value Source: NWS Daily Summary

Daily Weather History Graph

Daily Weather History Graph

Search for Another Location

Airport or City:

Trip Planner

Search our weather history database for the weather conditions in past years. The results will help you decide how hot, cold, wet, or windy it might be!

Date:

Astronomy

Jan. 31, 2015 Rise Set
Actual Time 7:24 AM CST 5:59 PM CST
Civil Twilight 6:58 AM CST 6:25 PM CST
Nautical Twilight 6:28 AM CST 6:55 PM CST
Astronomical Twilight 5:59 AM CST 7:24 PM CST
Moon 3:27 PM CST (1/31) 4:44 AM CST (1/31)
Length of Visible Light 11h 27m
Length of Day
10h 35m
Waxing Gibbous, 90% of the Moon is Illuminated
Jan 31
Waxing Gibbous
Feb 3
Full
Feb 11
Last Quarter
Feb 18
New
Feb 25
First Quarter

Hourly Weather History & Observations

Time (CST) Temp. Windchill Dew Point Humidity Pressure Visibility Wind Dir Wind Speed Gust Speed Precip Events Conditions
12:53 AM 48.0 °F - 30.0 °F 50% 30.27 in 10.0 mi ESE 5.8 mph - N/A   Mostly Cloudy
1:53 AM 48.9 °F - 28.9 °F 46% 30.25 in 10.0 mi SE 11.5 mph - N/A   Mostly Cloudy
2:53 AM 48.9 °F - 30.0 °F 48% 30.23 in 10.0 mi SE 8.1 mph - N/A   Overcast
3:53 AM 48.0 °F - 30.0 °F 50% 30.20 in 10.0 mi ESE 9.2 mph - N/A   Mostly Cloudy
4:53 AM 48.0 °F - 30.9 °F 52% 30.20 in 10.0 mi SE 11.5 mph - N/A   Overcast
5:53 AM 48.2 °F - 30.2 °F 50% 30.20 in 10.0 mi SE 9.2 mph - N/A   Overcast
6:53 AM 46.9 °F - 30.9 °F 54% 30.20 in 10.0 mi SE 11.5 mph - N/A   Overcast
7:53 AM 46.9 °F - 32.0 °F 56% 30.20 in 10.0 mi SE 12.7 mph - N/A   Overcast
8:53 AM 46.4 °F 39.5 °F 32.0 °F 57% 30.19 in 10.0 mi SE 17.3 mph - N/A   Overcast
9:53 AM 48.0 °F - 32.0 °F 54% 30.20 in 10.0 mi SSE 13.8 mph - N/A   Overcast
10:53 AM 48.9 °F - 33.1 °F 54% 30.17 in 10.0 mi ESE 13.8 mph - N/A   Overcast
11:44 AM 51.1 °F - 34.0 °F 52% 30.14 in 10.0 mi ESE 12.7 mph - N/A   Overcast
11:53 AM 51.1 °F - 34.0 °F 52% 30.13 in 10.0 mi SE 11.5 mph - N/A   Overcast
12:53 PM 52.0 °F - 37.0 °F 57% 30.08 in 10.0 mi SE 11.5 mph - 0.00 in Rain Light Rain
1:53 PM 52.0 °F - 37.9 °F 59% 30.04 in 10.0 mi SE 12.7 mph - 0.00 in   Overcast
2:53 PM 51.1 °F - 39.9 °F 66% 30.01 in 1.0 mi SE 12.7 mph - 0.00 in Rain Light Rain
3:44 PM 48.0 °F - 45.0 °F 89% 30.00 in 2.5 mi ESE 4.6 mph - 0.04 in Rain Rain
3:53 PM 48.0 °F - 45.0 °F 89% 30.00 in 2.5 mi SE 4.6 mph - 0.06 in Rain Rain
4:35 PM 48.0 °F - 46.0 °F 93% 29.99 in 1.8 mi SE 3.5 mph - 0.08 in Rain Heavy Rain
4:43 PM 48.0 °F - 46.0 °F 93% 30.00 in 3.0 mi South 3.5 mph - 0.10 in Rain Light Rain
4:53 PM 48.0 °F - 46.0 °F 93% 29.99 in 4.0 mi South 4.6 mph - 0.10 in Rain Light Rain
5:27 PM 48.9 °F - 46.9 °F 93% 29.99 in 2.5 mi Calm Calm - 0.01 in Rain Light Rain
5:53 PM 48.9 °F - 46.9 °F 93% 29.98 in 2.0 mi ESE 3.5 mph - 0.04 in Rain Rain
6:00 PM 48.9 °F - 46.9 °F 93% 29.98 in 2.5 mi ESE 4.6 mph - 0.01 in Rain Rain
6:26 PM 48.9 °F - 48.0 °F 97% 29.98 in 3.0 mi ESE 6.9 mph - 0.05 in Rain Light Rain
6:43 PM 48.9 °F - 48.0 °F 97% 29.96 in 3.0 mi ESE 8.1 mph - 0.07 in Rain Light Rain
6:53 PM 48.9 °F - 48.0 °F 97% 29.96 in 3.0 mi ESE 9.2 mph - 0.08 in Rain Light Rain
7:34 PM 50.0 °F - 48.0 °F 93% 29.95 in 3.0 mi SE 12.7 mph - 0.11 in Rain Rain
7:53 PM 50.0 °F - 48.9 °F 96% 29.94 in 2.5 mi SE 12.7 mph - 0.16 in Rain Rain
8:07 PM 50.0 °F - 48.9 °F 96% 29.94 in 3.0 mi SE 11.5 mph - 0.03 in Rain Light Rain
8:53 PM 50.0 °F - 48.9 °F 96% 29.92 in 4.0 mi SE 11.5 mph - 0.06 in Rain Light Rain
9:05 PM 50.0 °F - 48.9 °F 96% 29.92 in 4.0 mi SE 10.4 mph - 0.01 in Rain Light Rain
9:39 PM 50.0 °F - 48.9 °F 96% 29.90 in 6.0 mi SE 9.2 mph - 0.01 in   Overcast
9:53 PM 51.1 °F - 48.9 °F 92% 29.89 in 5.0 mi SSE 12.7 mph - 0.02 in Rain Light Rain
10:53 PM 52.0 °F - 50.0 °F 93% 29.88 in 7.0 mi South 15.0 mph 20.7 mph 0.00 in Rain Light Rain
11:53 PM 53.1 °F - 52.0 °F 96% 29.86 in 5.0 mi South 13.8 mph - 0.02 in Rain Light Rain